Richlands, VA

4:39 PM EDT on April 20, 2018 (GMT -0400)
Tazewell County

Weather History for KJFZ - October, 2013

Change the Weather History Date:

Friday, October 18, 2013

  Actual Average (KBLF) Record (KBLF)
Temperature  
Mean Temperature 52 °F -  
Max Temperature 62 °F 62 °F 79 °F (2006)
Min Temperature 43 °F 44 °F 27 °F (1976)
Degree Days  
Heating Degree Days 12    
Growing Degree Days 2 (Base 50)    
Moisture  
Dew Point 43 °F    
Average Humidity 73    
Maximum Humidity 96    
Minimum Humidity 41    
Precipitation  
Precipitation 0.00 in - - ()
Sea Level Pressure  
Sea Level Pressure 30.03 in    
Wind  
Wind Speed 2 mph (WNW)    
Max Wind Speed 6 mph    
Max Gust Speed -    
Visibility 7 miles    
Events Fog    
Averages and records for this station are not official NWS values.
T = Trace of Precipitation, MM = Missing Value Source: NWS Daily Summary

Daily Weather History Graph

Daily Weather History Graph

Search for Another Location

Airport or City:

Astronomy

Oct. 18, 2013 Rise Set
Actual Time 7:37 AM EDT 6:46 PM EDT
Civil Twilight 7:11 AM EDT 7:12 PM EDT
Nautical Twilight 6:41 AM EDT 7:42 PM EDT
Astronomical Twilight 6:11 AM EDT 8:12 PM EDT
Moon 6:35 PM EDT (10/18) 7:12 AM EDT (10/18)
Length of Visible Light 12h 00m
Length of Day
11h 08m
Full, 100% of the Moon is Illuminated
Oct 18
Full
Oct 18
Full
Oct 26
Last Quarter
Nov 3
New
Nov 10
First Quarter

Hourly Weather History & Observations

Time (EDT) Temp. Windchill Dew Point Humidity Pressure Visibility Wind Dir Wind Speed Gust Speed Precip Events Conditions
12:15 AM 50.2 °F - 46.6 °F 87% 30.03 in 10.0 mi West 3.5 mph - N/A   Overcast
12:35 AM 49.6 °F - 46.2 °F 88% 30.03 in 10.0 mi West 3.5 mph - N/A   Mostly Cloudy
12:55 AM 50.5 °F - 43.0 °F 75% 30.02 in 10.0 mi West 5.8 mph - N/A   Mostly Cloudy
1:15 AM 50.2 °F - 43.0 °F 76% 30.02 in 10.0 mi West 3.5 mph - N/A   Overcast
1:35 AM 50.4 °F - 43.3 °F 77% 30.01 in 10.0 mi Calm Calm - N/A   Overcast
1:55 AM 49.6 °F - 44.1 °F 81% 30.02 in 10.0 mi Calm Calm - N/A   Mostly Cloudy
2:15 AM 49.8 °F - 45.5 °F 85% 30.03 in 10.0 mi Calm Calm - N/A   Overcast
2:35 AM 49.8 °F - 44.1 °F 81% 30.03 in 10.0 mi Calm Calm - N/A   Overcast
2:55 AM 49.6 °F - 44.6 °F 83% 30.03 in 10.0 mi Calm Calm - N/A   Overcast
3:15 AM 49.5 °F - 44.1 °F 82% 30.02 in 10.0 mi Calm Calm - N/A   Mostly Cloudy
3:35 AM 48.6 °F - 45.7 °F 90% 30.02 in 10.0 mi Calm Calm - N/A   Scattered Clouds
3:55 AM 46.2 °F - 44.1 °F 92% 30.01 in 10.0 mi Calm Calm - N/A   Clear
4:15 AM 45.1 °F 42.8 °F 43.3 °F 93% 30.01 in 0.5 mi NNW 4.6 mph - N/A Fog Fog
4:35 AM 44.8 °F - 43.2 °F 94% 30.02 in 0.2 mi Calm Calm - N/A Fog Fog
4:55 AM 46.6 °F - 43.7 °F 90% 30.03 in 4.0 mi NW 3.5 mph - N/A   Mostly Cloudy
5:15 AM 46.4 °F 45.2 °F 45.0 °F 95% 30.03 in 0.2 mi NW 3.5 mph - N/A Fog Fog
5:35 AM 46.4 °F - 45.0 °F 95% 30.03 in 0.2 mi Calm Calm - N/A Fog Fog
5:55 AM 45.7 °F 44.4 °F 44.4 °F 95% 30.04 in 0.2 mi NW 3.5 mph - N/A Fog Fog
6:15 AM 45.5 °F - 44.1 °F 95% 30.04 in 0.2 mi Calm Calm - N/A Fog Fog
6:35 AM 45.5 °F - 44.1 °F 95% 30.04 in 0.2 mi Calm Calm - N/A Fog Fog
6:55 AM 44.8 °F - 43.3 °F 95% 30.05 in 0.2 mi Calm Calm - N/A Fog Fog
7:15 AM 44.6 °F - 43.3 °F 95% 30.05 in 0.2 mi Calm Calm - N/A Fog Fog
7:35 AM 43.9 °F - 42.8 °F 96% 30.05 in 0.2 mi Calm Calm - N/A Fog Fog
7:55 AM 44.1 °F - 42.8 °F 95% 30.05 in 0.2 mi Calm Calm - N/A Fog Fog
8:15 AM 44.2 °F - 43.0 °F 95% 30.06 in 0.2 mi Calm Calm - N/A Fog Fog
8:35 AM 45.0 °F - 43.7 °F 95% 30.07 in 0.2 mi Calm Calm - N/A Fog Fog
8:55 AM 46.0 °F - 44.8 °F 95% 30.07 in 0.2 mi Calm Calm - N/A Fog Fog
9:15 AM 46.9 °F - 45.7 °F 95% 30.08 in 0.2 mi Calm Calm - N/A Fog Fog
9:35 AM 47.8 °F - 46.6 °F 95% 30.09 in 0.2 mi Calm Calm - N/A Fog Fog
9:55 AM 48.2 °F - 46.8 °F 95% 30.09 in 0.5 mi Calm Calm - N/A Fog Fog
10:15 AM 47.5 °F - 46.0 °F 95% 30.10 in 0.2 mi Calm Calm - N/A Fog Fog
10:35 AM 48.6 °F - 46.6 °F 93% 30.10 in 7.0 mi Calm Calm - N/A   Mostly Cloudy
10:55 AM 50.0 °F - 46.2 °F 87% 30.10 in 10.0 mi Calm Calm - N/A   Scattered Clouds
11:15 AM 50.4 °F - 44.4 °F 80% 30.10 in 10.0 mi Calm Calm - N/A   Scattered Clouds
11:35 AM 51.1 °F - 43.2 °F 74% 30.10 in 10.0 mi West 3.5 mph - N/A   Clear
11:55 AM 52.5 °F - 44.1 °F 73% 30.08 in 10.0 mi NW 4.6 mph - N/A   Clear
12:15 PM 54.3 °F - 42.3 °F 64% 30.08 in 10.0 mi NNE 3.5 mph - N/A   Clear
12:35 PM 55.2 °F - 41.0 °F 59% 30.08 in 10.0 mi Calm Calm - N/A   Clear
12:55 PM 56.1 °F - 41.7 °F 58% 30.07 in 10.0 mi Calm Calm - N/A   Clear
1:15 PM 56.5 °F - 40.3 °F 55% 30.06 in 10.0 mi Calm Calm - N/A   Clear
1:35 PM 58.1 °F - 41.0 °F 53% 30.06 in 10.0 mi Calm Calm - N/A   Clear
1:55 PM 58.6 °F - 42.4 °F 55% 30.04 in 10.0 mi West 5.8 mph - N/A   Clear
2:07 PM 59.0 °F - 42.8 °F 55% 30.04 in 10.0 mi West 4.6 mph - N/A   Clear
2:15 PM 60.3 °F - 43.2 °F 53% 30.03 in 10.0 mi West 5.8 mph - N/A   Clear
2:35 PM 60.3 °F - 42.3 °F 51% 30.03 in 10.0 mi West 3.5 mph - N/A   Clear
2:55 PM 59.5 °F - 40.3 °F 49% 30.02 in 10.0 mi Calm Calm - N/A   Clear
3:15 PM 61.2 °F - 41.0 °F 47% 30.01 in 10.0 mi SSE 5.8 mph - N/A   Clear
3:35 PM 62.2 °F - 41.7 °F 47% 30.01 in 10.0 mi SW 5.8 mph - N/A   Clear
3:55 PM 61.9 °F - 39.6 °F 44% 30.01 in 10.0 mi Calm Calm - N/A   Clear
4:15 PM 61.9 °F - 37.6 °F 41% 30.01 in 10.0 mi Calm Calm - N/A   Clear
4:35 PM 61.9 °F - 39.2 °F 43% 30.01 in 10.0 mi West 3.5 mph - N/A   Clear
4:55 PM 61.5 °F - 39.7 °F 45% 30.00 in 10.0 mi WNW 3.5 mph - N/A   Clear
5:15 PM 60.8 °F - 37.6 °F 42% 30.01 in 10.0 mi Calm Calm - N/A   Clear
5:35 PM 60.8 °F - 38.7 °F 44% 30.00 in 10.0 mi Calm Calm - N/A   Clear
5:55 PM 60.8 °F - 39.0 °F 45% 30.00 in 10.0 mi Calm Calm - N/A   Clear
6:15 PM 59.9 °F - 38.5 °F 45% 30.00 in 10.0 mi Calm Calm - N/A   Clear
6:35 PM 59.0 °F - 38.5 °F 47% 30.00 in 10.0 mi South 3.5 mph - N/A   Clear
6:55 PM 59.0 °F - 37.6 °F 45% 30.01 in 10.0 mi SSW 3.5 mph - N/A   Clear
7:15 PM 58.6 °F - 37.4 °F 45% 30.01 in 10.0 mi Calm Calm - N/A   Clear
7:35 PM 57.4 °F - 39.7 °F 52% 30.01 in 7.0 mi Calm Calm - N/A   Clear
7:55 PM 54.7 °F - 42.1 °F 62% 30.01 in 10.0 mi East 3.5 mph - N/A   Clear
8:15 PM 54.1 °F - 44.1 °F 69% 30.02 in 10.0 mi NE 4.6 mph - N/A   Clear
8:35 PM 53.6 °F - 44.2 °F 71% 30.02 in 10.0 mi ENE 4.6 mph - N/A   Clear
8:55 PM 53.1 °F - 44.4 °F 72% 30.01 in 10.0 mi NE 4.6 mph - N/A   Clear
9:15 PM 52.2 °F - 44.6 °F 75% 30.02 in 10.0 mi Calm Calm - N/A   Clear
9:35 PM 52.9 °F - 44.2 °F 72% 30.01 in 10.0 mi Calm Calm - N/A   Clear
9:55 PM 51.8 °F - 43.9 °F 74% 30.02 in 10.0 mi Calm Calm - N/A   Clear
10:15 PM 52.9 °F - 43.7 °F 71% 30.02 in 10.0 mi Calm Calm - N/A   Clear
10:35 PM 51.4 °F - 44.4 °F 77% 30.01 in 10.0 mi Calm Calm - N/A   Clear
10:55 PM 51.1 °F - 44.6 °F 78% 30.01 in 10.0 mi Calm Calm - N/A   Scattered Clouds
11:15 PM 50.4 °F - 44.6 °F 81% 30.01 in 10.0 mi Calm Calm - N/A   Mostly Cloudy
11:35 PM 50.9 °F - 44.8 °F 80% 30.01 in 10.0 mi Calm Calm - N/A   Overcast
11:55 PM 50.4 °F - 45.3 °F 83% 30.01 in 10.0 mi Calm Calm - N/A   Overcast